Hourly Data Report for November 04, 2011

HALIFAX STANFIELD INT'L A
NOVA SCOTIA

44°52'48.060" N
63°30'00.050" W
145.40 m
8202250
71395
YHZ

Download Data

Hourly Data (November 2011)
Hourly Data Report for November 4, 2011
TIME
LST
Temp Definition
°C
Dew Point Definition
°C
Rel Hum Definition
%
Precip. Amount Definition
mm

Wind Dir Definition
10's deg

Wind Spd Definition
km/h
Visibility Definition
km
Stn Press Definition
kPa
Hmdx Definition


Wind Chill Definition


Weather Definition


00:00 7.0 5.4 90   24 11 24.1 99.19     Cloudy
01:00 7.2 5.8 91   20 15 24.1 99.10     Cloudy
02:00 7.3 6.1 92   20 17 24.1 99.04     Cloudy
03:00 7.5 6.4 93   20 17 24.1 98.97     Cloudy
04:00 7.6 6.6 93   23 11 24.1 98.93     Cloudy
05:00 7.3 6.5 95   23 13 24.1 98.88     Cloudy
06:00 7.8 6.9 94   26 11 24.1 98.84     Cloudy
07:00 7.7 7.0 95   29 15 16.1 98.86     Cloudy
08:00 6.0 5.4 96   35 15 9.7 98.99     Rain Showers, Fog
09:00 5.5 5.2 98   33 17 19.3 99.01     Rain Showers
10:00 4.9 4.0 94   33 19 24.1 99.01     Cloudy
11:00 5.5 4.1 91   32 15 24.1 99.03     Cloudy
12:00 6.6 4.3 85   31 19 24.1 99.00     Mostly Cloudy
13:00 7.0 1.8 69   32 24 24.1 98.98     Mostly Cloudy
14:00 7.2 2.8 74   35 17 24.1 98.96     Mostly Cloudy
15:00 5.5 1.5 75   32 26 24.1 99.04     Mostly Cloudy
16:00 3.7 2.4 91   35 17 24.1 99.13     Rain Showers
17:00 3.7 2.5 92   34 15 24.1 99.20     Cloudy
18:00 2.8 1.0 88   35 20 24.1 99.33     Mostly Cloudy
19:00 1.6 -0.1 88   34 15 24.1 99.37     Mainly Clear
20:00 1.2 -0.9 86   33 15 24.1 99.41     Mainly Clear
21:00 0.6 -1.5 86   32 13 24.1 99.43     Mainly Clear
22:00 0.3 -1.7 86   33 19 24.1 99.51     Mainly Clear
23:00 0.5 -1.0 90   33 20 24.1 99.55     Mainly Clear

Notes on Data Quality.

Legend

  • E = Estimated
  • M = Missing
  • NA = Not Available*
  • [empty] = Indicates an unobserved value
Date modified: